Location: ????
(30.1475°N, 31.1342°E)
Time: 02:14:23
(UTC+00:00)

Meteor 1-11 Rocket - Pass Details

Date: 27 September 2022
Orbit: 830 x 916 km, 81.2° (Epoch: 30 November)

Event Time Altitude Azimuth Distance (km) Brightness Sun altitude
Rises 02:13:51 0° 355° (N) 3,555 7.0 -20.7°
Reaches altitude 10° 02:16:21 10° 358° (N) 2,611 6.3 -20.2°
Maximum altitude 02:22:18 70° 82° (E) 970 4.1 -18.9°
Drops below altitude 10° 02:28:11 10° 165° (SSE) 2,577 6.3 -17.7°
Sets 02:30:38 0° 168° (SSE) 3,505 7.0 -17.2°
